User: anonymous   Login
Location: NJAA Observatory
(40.6819°N, 74.8979°W)
Time: 21:18:07
(UTC-05:00)
Language:

ALOS - Orbit

View from above orbital plane
View from above orbital plane
View from above satellite
View from above satellite

Ground track
Ground track

The orbit data is extracted from the following two-line orbital elements,

1 28931U 06002A   17343.77777432  .00000163  00000-0  40806-4 0  9995
2 28931  97.8303   2.2311 0002369  93.9672 266.1799 14.62433848633128
Epoch (UTC): 09 December 2017 18:39:59
Eccentricity: 0.0002369
inclination: 97.8303°
perigee height: 683 km
apogee height: 687 km
right ascension of ascending node: 2.2311°
argument of perigee: 93.9672°
revolutions per day: 14.62433848
mean anomaly at epoch: 266.1799°
orbit number at epoch: 63312

The dashed part of the orbit path shows where the satellite is in the earth's shadow,  

DLR